Flag for U.S.A. Weather past 2 weeks in Modesto, California, U.S.A.

Now
79 °F

Clear.


Feels Like: 79 °F
Forecast: 70 / 98 °F
Wind: 5 mph from North

Location: Modesto City-County-Sham Field

Current Time: Jul 30, 2014 at 4:16:39 AM

Latest Report: Jul 30, 2014 at 3:53 AM


Visibility: 10 mi

Pressure: 29.90 "Hg

Humidity: 30%

Dew point: 45 °F

Location of ModestoLocation

Historic Weather in Modesto — Graph

°F

Modesto temperature yesterday

Maximum temperature yesterday: 99 °F (at 3:53 PM)
Minimum temperature yesterday: 74 °F (at 5:53 AM)
Average temperature yesterday: 86 °F

Past Weeks' High & Low Weather Summary

 TemperatureHumidityPressure
High101 °F (Jul 26, 3:53 PM)84% (Jul 23, 3:53 AM)30.12 "Hg (Jul 23, 3:53 AM)
Low62 °F (Jul 18, 3:53 AM)12% (Jul 25, 5:53 PM)29.76 "Hg (Jul 25, 5:53 PM)
Average79 °F45%29.92 "Hg
* Reported Jul 15 4:53 AM — Jul 30 2:53 AM, Modesto, Weather by CustomWeather, © 2014

Note: Actual official high and low records may vary slightly from our data, if they occured in-between our weather recording intervals... More about our weather records

Advertising

Modesto weather history for previous 24 hours

 ConditionsComfort  
Time TempWeatherWind HumidityBarometerVisibility
2:53 AM
Jul 30
80 °FClear.5 mph28%29.90 "Hg10 mi
1:53 AM80 °FClear.6 mph31%29.90 "Hg10 mi
12:53 AM81 °FClear.6 mph32%29.91 "Hg10 mi
11:53 PM
Jul 29
82 °FClear.7 mph26%29.91 "Hg10 mi
10:53 PM85 °FClear.8 mph22%29.92 "Hg10 mi
9:53 PM87 °FClear.8 mph22%29.92 "Hg10 mi
8:53 PM90 °FSunny.10 mph23%29.90 "Hg10 mi
7:53 PM94 °FSunny.14 mph19%29.89 "Hg10 mi
6:53 PM96 °FSunny.14 mph18%29.88 "Hg10 mi
5:53 PM98 °FSunny.12 mph17%29.89 "Hg10 mi
4:53 PM99 °FSunny.13 mph18%29.90 "Hg10 mi
3:53 PM99 °FSunny.10 mph16%29.92 "Hg10 mi
2:53 PM96 °FSunny.10 mph22%29.93 "Hg10 mi
1:53 PM94 °FSunny.9 mph24%29.96 "Hg10 mi
12:53 PM92 °FSunny.9 mph26%29.98 "Hg10 mi
11:53 AM90 °FSunny.8 mph24%29.98 "Hg10 mi
10:53 AM87 °FSunny.6 mph27%30.00 "Hg10 mi
9:53 AM81 °FSunny.6 mph41%30.00 "Hg10 mi
8:53 AM76 °FSunny.5 mph48%30.01 "Hg10 mi
7:53 AM74 °FSunny.5 mph52%29.99 "Hg10 mi
6:53 AM74 °FClear.9 mph43%29.98 "Hg10 mi
5:53 AM74 °FPassing clouds.7 mph43%29.98 "Hg10 mi
4:53 AM75 °FPassing clouds.8 mph42%29.98 "Hg10 mi
Weather by CustomWeather, © 2014

See weather overviewHow to use our weather pages